User: anonymous   Login
Location: Unspecified
(0.0000°N, 0.0000°E)
Time: 06:47:14
(UTC+00:00)
Language:

ESTCUBE 1 - Orbit

View from above orbital plane
View from above orbital plane
View from above satellite
View from above satellite

Ground track
Ground track

The orbit data is extracted from the following two-line orbital elements,

1 39161U 13021C   17087.91277686 -.00000200 +00000-0 -24046-4 0  9990
2 39161 098.0305 174.9609 0010275 048.4270 311.7785 14.71850649208943
Epoch (UTC): 28 March 2017 21:54:23
Eccentricity: 0.0010275
inclination: 98.0305°
perigee height: 648 km
apogee height: 662 km
right ascension of ascending node: 174.9609°
argument of perigee: 48.4270°
revolutions per day: 14.71850649
mean anomaly at epoch: 311.7785°
orbit number at epoch: 20894

The dashed part of the orbit path shows where the satellite is in the earth's shadow,  

DLR